sat.trackr.live / text

‹ back to catalog

YAOGAN-50 02

NORAD 68196 · 2026-051A

PAYLOAD ACTIVE UNKNOWN

§ Identity

Operator
Country
PRC
Launch date
2026-03-15
Launch site
TAISC
Launch vehicle
Mass (kg)
RCS (m²)

External: N2YO · Heavens-Above · Gunter

§ Orbital elements

Epoch: 2026-09-20T00:19:08.404608Z

Period
104.10 min
Inclination
141.9927°
Eccentricity
0.0000633
Mean motion
13.83257198 rev/d
Perigee alt
951.9 km
Apogee alt
952.8 km
Semi-major
7,330.5 km
B*
9.5611e-5
RAAN
65.5635°
Arg perigee
289.5312°
Mean anomaly
70.5339°
Rev number
2,613

§ Raw data

YAOGAN-50 021 68196U 26051A   26263.01329172  .00000293  00000+0  95611-4 0  99972 68196 141.9927  65.5635 0000633 289.5312  70.5339 13.83257198 26133

JSON: /api/v1/satellites/68196 · /tle

For live sub-satellite position, see the globe view (requires WebGL).

§ Visibility from observer

Set your observer location to see the next 7 days of passes ≥ 10°. The values pass through the URL so the page stays shareable.

No JS? Fill the form by hand. The geolocation button needs JavaScript.